Location: Unspecified
(40.7945°N, 111.1337°W)
Time: 02:48:01
(UTC-06:00)

Resurs 1-4 Rocket - Pass Details

Date: 31 March 2019
Orbit: 799 x 815 km, 98.6° (Epoch: 20 April)

Event Time Altitude Azimuth Distance (km) Brightness Sun altitude
Rises 02:12:50 0° 27° (NNE) 3,322 6.1 -44.0°
Reaches altitude 10° 02:15:39 10° 41° (NE) 2,383 5.1 -43.9°
Enters shadow 02:15:57 11° 43° (NE) 2,294 4.9 -43.8°
